Terminal Aerodrome Forecast
Issued by NWS Charleston, WV

Current Version | Previous Version | Graphics & Text | Print | Product List | Glossary On
Versions: 1 2 3 4 5 6 7 8 9 10 11 12 13 14 15 16 17 18 19 20 21 22 23 24 25
000
FTUS41 KRLX 251500 AAA
TAFBKW
TAF AMD
KBKW 251502Z 2515/2612 25008KT P6SM SCT250
     FM251700 28008G16KT P6SM FEW250
     FM252000 31007KT P6SM BKN070
     FM260500 18005KT P6SM BKN030
     FM260800 VRB03KT P6SM BKN013
     FM261100 00000KT 3SM -SN BR OVC010=

USA.gov is the U.S. government's official web portal to all federal, state and local government web resources and services.